Location: Peebles
(55.6412°N, 3.1714°W)
Time: 07:25:04
(UTC+01:00)

KEPLER-1 (CASE) - Pass Details

Date: 05 July 2022
Orbit: 437 x 454 km, 97.4° (Epoch: 10 August)

Event Time Altitude Azimuth Distance (km) Brightness Sun altitude
Exits shadow 00:17:21 10° 204° (SSW) 1,541 ? -10.5°
Maximum altitude 00:20:14 28° 265° (W) 875 ? -10.6°
Drops below altitude 10° 00:23:14 10° 326° (NW) 1,591 ? -10.7°
Sets 00:25:29 0° 338° (NNW) 2,474 ? -10.8°
